When you browse on this site, cookies collect data to enhance your experience and personalize the content and advertising you see.
Visit our Privacy Policy to learn more. By continuing to use the site, you agree to this use of cookies and data.

Hourly Weather Berlin

Today, 10 August, Monday

Time Temperature Precipitation Wind Pressure Humidity
00:00 +21°C° 0.3 mm 2 mps 760 mmHg 80%
01:00 +22°C° 0 mm 3 mps 760 mmHg 78%
02:00 +23°C° 0.1 mm 2 mps 759 mmHg 79%
03:00 +21°C° 0.1 mm 2 mps 759 mmHg 79%
04:00 +21°C° 0.1 mm 2 mps 759 mmHg 80%
05:00 +23°C° 0 mm 2 mps 759 mmHg 78%
06:00 +23°C° 0 mm 2 mps 759 mmHg 77%
07:00 +25°C° 0 mm 1 mps 760 mmHg 76%
08:00 +27°C° 0.2 mm 2 mps 760 mmHg 69%
09:00 +28°C° 0.2 mm 2 mps 760 mmHg 62%
10:00 +30°C° 0.2 mm 3 mps 759 mmHg 55%
11:00 +31°C° 0.3 mm 3 mps 759 mmHg 51%
12:00 +33°C° 0.3 mm 3 mps 760 mmHg 47%
13:00 +33°C° 0.3 mm 3 mps 760 mmHg 43%
14:00 +31°C° 1.7 mm 3 mps 760 mmHg 51%
15:00 +29°C° 1.7 mm 3 mps 759 mmHg 58%
16:00 +27°C° 1.7 mm 4 mps 759 mmHg 66%
17:00 +26°C° 1 mm 3 mps 759 mmHg 70%
18:00 +25°C° 1 mm 2 mps 759 mmHg 73%
19:00 +25°C° 1 mm 2 mps 759 mmHg 77%
20:00 +24°C° 0.2 mm 2 mps 760 mmHg 78%
21:00 +23°C° 0.2 mm 2 mps 760 mmHg 79%
22:00 +23°C° 0.2 mm 2 mps 760 mmHg 80%
23:00 +21°C° 0.4 mm 2 mps 760 mmHg 81%

Tomorrow, 11 August, Tuesday

Time Temperature Precipitation Wind Pressure Humidity
00:00 +21°C° 0.4 mm 2 mps 761 mmHg 82%
01:00 +21°C° 0.4 mm 2 mps 761 mmHg 83%
02:00 +21°C° 0.3 mm 2 mps 761 mmHg 85%
03:00 +21°C° 0.3 mm 2 mps 761 mmHg 87%
04:00 +20°C° 0.3 mm 2 mps 761 mmHg 88%
05:00 +21°C° 0 mm 2 mps 761 mmHg 86%
06:00 +22°C° 0 mm 3 mps 761 mmHg 83%
07:00 +24°C° 0 mm 3 mps 761 mmHg 80%
08:00 +25°C° 0 mm 3 mps 761 mmHg 73%
09:00 +27°C° 0 mm 3 mps 761 mmHg 66%
10:00 +29°C° 0 mm 3 mps 761 mmHg 59%
11:00 +30°C° 0 mm 3 mps 761 mmHg 54%
12:00 +31°C° 0 mm 3 mps 761 mmHg 49%
13:00 +33°C° 0 mm 4 mps 761 mmHg 44%
14:00 +33°C° 0 mm 4 mps 761 mmHg 43%
15:00 +33°C° 0 mm 4 mps 761 mmHg 42%
16:00 +33°C° 0 mm 4 mps 761 mmHg 41%
17:00 +30°C° 0 mm 4 mps 761 mmHg 46%
18:00 +29°C° 0 mm 4 mps 761 mmHg 50%
19:00 +28°C° 0 mm 3 mps 761 mmHg 55%
20:00 +26°C° 0 mm 3 mps 761 mmHg 58%
21:00 +25°C° 0 mm 3 mps 761 mmHg 61%
22:00 +24°C° 0 mm 3 mps 762 mmHg 64%
23:00 +24°C° 0 mm 3 mps 762 mmHg 64%

Day after tomorrow, 12 August, Wednesday

Time Temperature Precipitation Wind Pressure Humidity
00:00 +22°C° 0 mm 3 mps 762 mmHg 64%
01:00 +21°C° 0 mm 3 mps 762 mmHg 65%
02:00 +21°C° 0 mm 3 mps 762 mmHg 66%
03:00 +20°C° 0 mm 3 mps 762 mmHg 67%
04:00 +19°C° 0 mm 3 mps 762 mmHg 68%
05:00 +20°C° 0 mm 3 mps 762 mmHg 68%
06:00 +20°C° 0 mm 3 mps 762 mmHg 68%
07:00 +21°C° 0 mm 3 mps 761 mmHg 68%
08:00 +24°C° 0 mm 3 mps 762 mmHg 62%
09:00 +25°C° 0 mm 4 mps 762 mmHg 55%
10:00 +27°C° 0 mm 4 mps 762 mmHg 48%
11:00 +28°C° 0 mm 4 mps 761 mmHg 44%
12:00 +29°C° 0 mm 3 mps 761 mmHg 40%
13:00 +30°C° 0 mm 3 mps 761 mmHg 36%
14:00 +30°C° 0 mm 3 mps 761 mmHg 36%
15:00 +31°C° 0 mm 3 mps 760 mmHg 36%
16:00 +31°C° 0 mm 3 mps 760 mmHg 36%
17:00 +29°C° 0 mm 3 mps 760 mmHg 42%
18:00 +28°C° 0 mm 3 mps 760 mmHg 48%
19:00 +27°C° 0 mm 3 mps 760 mmHg 54%
20:00 +25°C° 0 mm 3 mps 760 mmHg 56%
21:00 +24°C° 0 mm 3 mps 760 mmHg 57%
22:00 +22°C° 0 mm 4 mps 760 mmHg 59%
23:00 +22°C° 0 mm 3 mps 760 mmHg 59%

13 August, Thursday

Time Temperature Precipitation Wind Pressure Humidity
00:00 +21°C° 0 mm 3 mps 760 mmHg 60%
01:00 +20°C° 0 mm 3 mps 760 mmHg 61%
02:00 +20°C° 0 mm 3 mps 759 mmHg 63%
03:00 +19°C° 0 mm 3 mps 759 mmHg 65%
04:00 +19°C° 0 mm 3 mps 759 mmHg 68%
05:00 +20°C° 0 mm 3 mps 759 mmHg 66%
06:00 +20°C° 0 mm 3 mps 759 mmHg 65%
07:00 +21°C° 0 mm 3 mps 759 mmHg 64%
08:00 +24°C° 0 mm 3 mps 759 mmHg 58%
09:00 +26°C° 0 mm 3 mps 759 mmHg 53%
10:00 +28°C° 0 mm 3 mps 758 mmHg 47%
11:00 +29°C° 0 mm 3 mps 758 mmHg 44%
12:00 +30°C° 0 mm 3 mps 758 mmHg 41%
13:00 +33°C° 0 mm 3 mps 757 mmHg 37%
14:00 +33°C° 0 mm 3 mps 757 mmHg 36%
15:00 +33°C° 0 mm 3 mps 757 mmHg 35%
16:00 +33°C° 0 mm 3 mps 757 mmHg 34%
17:00 +30°C° 0 mm 3 mps 757 mmHg 39%
18:00 +29°C° 0 mm 3 mps 756 mmHg 44%
19:00 +27°C° 0 mm 3 mps 756 mmHg 49%
20:00 +26°C° 0 mm 3 mps 756 mmHg 51%
21:00 +25°C° 0 mm 3 mps 756 mmHg 53%
22:00 +24°C° 0 mm 3 mps 756 mmHg 55%
23:00 +22°C° 0 mm 3 mps 756 mmHg 58%

14 August, Friday

Time Temperature Precipitation Wind Pressure Humidity
00:00 +22°C° 0 mm 3 mps 756 mmHg 61%
01:00 +21°C° 0 mm 2 mps 756 mmHg 63%
02:00 +20°C° 0 mm 2 mps 756 mmHg 66%
03:00 +20°C° 0 mm 2 mps 756 mmHg 68%
04:00 +20°C° 0 mm 2 mps 755 mmHg 70%
05:00 +20°C° 0 mm 2 mps 755 mmHg 69%
06:00 +21°C° 0 mm 2 mps 755 mmHg 69%
07:00 +23°C° 0 mm 2 mps 755 mmHg 68%
08:00 +25°C° 0 mm 2 mps 755 mmHg 63%
09:00 +26°C° 0 mm 2 mps 755 mmHg 58%
10:00 +28°C° 0 mm 2 mps 755 mmHg 53%
11:00 +30°C° 0 mm 2 mps 755 mmHg 50%
12:00 +31°C° 0 mm 1 mps 755 mmHg 47%
13:00 +32°C° 0 mm 1 mps 755 mmHg 44%
14:00 +32°C° 0 mm 1 mps 754 mmHg 44%
15:00 +32°C° 0 mm 1 mps 754 mmHg 45%
16:00 +32°C° 0 mm 1 mps 754 mmHg 45%
17:00 +30°C° 0.3 mm 1 mps 754 mmHg 52%
18:00 +29°C° 0.3 mm 2 mps 754 mmHg 59%
19:00 +27°C° 0.3 mm 2 mps 754 mmHg 66%
20:00 +26°C° 1.7 mm 2 mps 754 mmHg 71%
21:00 +25°C° 1.7 mm 1 mps 755 mmHg 77%
22:00 +24°C° 1.7 mm 1 mps 755 mmHg 82%
23:00 +24°C° 0.4 mm 1 mps 755 mmHg 83%

15 August, Saturday

Time Temperature Precipitation Wind Pressure Humidity
00:00 +24°C° 0.4 mm 1 mps 755 mmHg 84%
01:00 +24°C° 0.4 mm 2 mps 755 mmHg 85%
02:00 +23°C° 0.1 mm 2 mps 755 mmHg 87%
03:00 +23°C° 0.1 mm 2 mps 755 mmHg 88%
04:00 +21°C° 0.1 mm 2 mps 755 mmHg 90%
05:00 +23°C° 0.2 mm 2 mps 755 mmHg 87%
06:00 +23°C° 0.2 mm 2 mps 755 mmHg 85%
07:00 +24°C° 0.2 mm 2 mps 756 mmHg 83%
08:00 +25°C° 0.1 mm 2 mps 756 mmHg 75%
09:00 +26°C° 0.1 mm 2 mps 756 mmHg 67%
10:00 +28°C° 0.1 mm 2 mps 756 mmHg 59%
11:00 +29°C° 0.5 mm 2 mps 756 mmHg 55%
12:00 +30°C° 0.5 mm 2 mps 756 mmHg 51%
13:00 +31°C° 0.5 mm 1 mps 756 mmHg 46%
14:00 +31°C° 0.6 mm 2 mps 756 mmHg 49%
15:00 +30°C° 0.6 mm 2 mps 756 mmHg 51%
16:00 +30°C° 0.6 mm 2 mps 756 mmHg 53%
17:00 +29°C° 0.3 mm 2 mps 756 mmHg 58%
18:00 +28°C° 0.3 mm 2 mps 756 mmHg 62%
19:00 +27°C° 0.3 mm 2 mps 756 mmHg 67%
20:00 +26°C° 0.1 mm 2 mps 757 mmHg 69%
21:00 +25°C° 0.1 mm 2 mps 757 mmHg 72%
22:00 +24°C° 0.1 mm 2 mps 757 mmHg 74%
23:00 +23°C° 0 mm 2 mps 757 mmHg 74%
Show more